User: anonymous   Login
Location: Unspecified
(0.0000°N, 0.0000°E)
Time: 23:14:04
(UTC+00:00)
Language:

GOMX4-B - Orbit

View from above orbital plane
View from above orbital plane
View from above satellite
View from above satellite

Ground track
Ground track

The orbit data is extracted from the following two-line orbital elements,

1 43196U 18015E   23083.20386031  .00076397  00000-0  23432-2 0  9995
2 43196  97.5668 231.7992 0015830 147.9063 212.3146 15.33349245285919
Epoch (UTC): 24 March 2023 04:53:33
Eccentricity: 0.0015830
inclination: 97.5668°
perigee height: 455 km
apogee height: 476 km
right ascension of ascending node: 231.7992°
argument of perigee: 147.9063°
revolutions per day: 15.33349245
mean anomaly at epoch: 212.3146°
orbit number at epoch: 28591

The dashed part of the orbit path shows where the satellite is in the earth's shadow,  

DLR